Date,TemperatureHighF,TemperatureAvgF,TemperatureLowF,DewpointHighF,DewpointAvgF,DewpointLowF,HumidityHigh,HumidityAvg,HumidityLow,PressureMaxIn,PressureMinIn,WindSpeedMaxMPH,WindSpeedAvgMPH,GustSpeedMaxMPH,PrecipitationSumIn
2013-1-1,17.0,10.9,4.8,12.0,6.8,1.0,89,83,74,30.42,30.02,4,0,6,0.00
2013-1-2,23.1,8.6,0.9,10.0,1.6,-3.0,89,75,49,30.53,30.38,1,0,4,0.02
2013-1-3,19.4,5.7,-3.6,7.0,-0.6,-8.0,90,76,53,30.66,30.53,3,0,3,0.00
2013-1-4,26.5,9.6,-1.8,1.0,-3.3,-8.0,82,59,26,30.63,30.41,3,0,5,0.01
2013-1-5,36.9,20.0,7.6,9.0,-0.8,-6.0,70,44,22,30.55,30.45,3,0,5,0.01
2013-1-6,40.0,23.8,15.0,5.0,-2.3,-7.0,46,34,17,30.50,30.25,4,0,5,0.08
2013-1-10,34.3,30.1,28.2,12.0,7.6,4.0,46,39,30,29.79,29.64,5,1,12,0.01
2013-1-11,30.3,15.6,2.8,18.0,3.7,-7.0,88,61,42,29.90,29.38,13,4,23,0.00
2013-1-12,13.0,2.9,-5.1,-5.0,-9.0,-13.0,77,60,33,30.24,29.90,4,0,9,0.00
2013-1-13,11.9,3.4,-3.1,0.0,-5.6,-9.0,83,67,45,30.33,30.25,6,1,13,0.00
2013-1-14,14.1,5.8,-1.8,7.0,0.0,-6.0,86,78,58,30.31,30.17,5,0,8,0.00
2013-1-15,14.6,3.7,-5.0,3.0,-3.0,-9.0,85,75,53,30.64,30.28,2,0,3,0.03
2013-1-16,35.8,19.7,4.1,17.0,9.8,-2.0,84,67,41,30.69,30.53,3,0,7,0.02
2013-1-17,36.4,24.4,14.8,19.0,14.4,12.0,89,68,44,30.60,30.46,4,0,7,0.02
2013-1-18,38.0,27.7,20.3,18.0,13.3,8.0,73,56,34,30.47,30.23,4,1,8,0.00
2013-1-19,44.6,29.4,19.2,13.0,4.4,-4.0,70,38,17,30.39,30.23,3,0,4,0.00
2013-1-20,45.4,31.3,21.1,8.0,1.5,-3.0,45,29,14,30.32,30.11,3,0,9,0.00
2013-1-21,41.4,28.8,20.3,13.0,5.0,1.0,50,37,25,30.28,30.17,3,0,5,0.00
2013-1-22,46.6,33.9,24.9,8.0,-1.0,-13.0,42,24,13,30.30,30.20,4,0,8,0.00
2013-1-23,51.8,37.4,24.5,8.0,-6.5,-19.0,33,16,7,30.32,30.20,5,1,9,0.00
2013-1-24,44.5,37.3,31.7,24.0,11.0,-3.0,69,36,16,30.20,30.00,7,1,16,0.00
2013-1-25,43.0,34.5,27.1,30.0,27.4,22.0,86,76,60,30.20,30.06,5,1,7,0.00
2013-1-26,43.7,36.3,31.6,37.0,32.2,29.0,94,85,69,30.07,29.73,4,1,10,0.04
2013-1-27,37.6,33.2,31.0,31.0,29.8,27.0,96,87,73,29.83,29.69,12,2,15,0.07
2013-1-28,32.7,28.6,20.1,29.0,25.3,18.0,94,87,74,29.80,29.57,11,2,17,0.00
2013-1-29,19.8,13.8,5.4,18.0,10.6,2.0,92,87,76,30.03,29.53,7,0,9,0.00
2013-1-30,19.1,10.4,-0.1,14.0,5.2,-4.0,86,79,73,30.43,30.04,6,1,12,0.01
2013-1-31,32.9,22.7,15.8,19.0,15.9,12.0,88,76,49,30.43,30.31,5,1,8,0.17